Weather History for KJDD - September, 2013

Change the Weather History Date:

Saturday, September 14, 2013

  Actual Average (KTYR) Record (KTYR)
Temperature  
Mean Temperature 81 °F 77 °F  
Max Temperature 91 °F 87 °F 102 °F (1939)
Min Temperature 71 °F 67 °F 47 °F (1902)
Degree Days  
Heating Degree Days 0 0  
Month to date heating degree days 0  
Since 1 July heating degree days 0  
Cooling Degree Days 16 12  
Month to date cooling degree days 193  
Year to date cooling degree days 2115  
Growing Degree Days 31 (Base 50)    
Moisture  
Dew Point 58 °F    
Average Humidity 46    
Maximum Humidity 60    
Minimum Humidity 31    
Precipitation  
Precipitation 0.00 in 0.10 in 1.95 in (2009)
Month to date precipitation 1.67  
Year to date precipitation 30.93  
Snow  
Snow 0.00 in - - ()
Month to date snowfall  
Since 1 July snowfall  
Since 1 September snowfall  
Snow Depth -    
Sea Level Pressure  
Sea Level Pressure 29.96 in    
Wind  
Wind Speed 2 mph (East)    
Max Wind Speed 8 mph    
Max Gust Speed -    
Visibility 10 miles    
Events      
T = Trace of Precipitation, MM = Missing Value Source: NWS Daily Summary

Daily Weather History Graph

Daily Weather History Graph

Search for Another Location

Airport or City:

Trip Planner

Search our weather history database for the weather conditions in past years. The results will help you decide how hot, cold, wet, or windy it might be!

Date:

Astronomy

Sep. 14, 2013 Rise Set
Actual Time 7:05 AM CDT 7:29 PM CDT
Civil Twilight 6:40 AM CDT 7:53 PM CDT
Nautical Twilight 6:11 AM CDT 8:22 PM CDT
Astronomical Twilight 5:42 AM CDT 8:52 PM CDT
Moon 3:59 PM CDT (9/14) 1:51 AM CDT (9/14)
Length of Visible Light 13h 13m
Length of Day
12h 23m
Waxing Gibbous, 72% of the Moon is Illuminated
Sep 14
Waxing Gibbous
Sep 19
Full
Sep 26
Last Quarter
Oct 4
New
Oct 11
First Quarter

Hourly Weather History & Observations

Time (CDT) Temp. Heat Index Dew Point Humidity Pressure Visibility Wind Dir Wind Speed Gust Speed Precip Events Conditions
12:15 AM 82.4 °F 83.9 °F 64.4 °F 54% 29.93 in 10.0 mi Calm Calm - N/A   Mostly Cloudy
12:35 AM 82.4 °F 83.9 °F 64.4 °F 54% 29.93 in 10.0 mi Calm Calm - N/A   Partly Cloudy
12:55 AM 82.4 °F 83.9 °F 64.4 °F 54% 29.94 in 10.0 mi ENE 3.5 mph - N/A   Clear
1:15 AM 80.6 °F 81.8 °F 62.6 °F 54% 29.94 in 10.0 mi Calm Calm - N/A   Clear
1:35 AM 80.6 °F 81.8 °F 62.6 °F 54% 29.94 in 10.0 mi Calm Calm - N/A   Clear
1:55 AM 80.6 °F 81.8 °F 62.6 °F 54% 29.94 in 10.0 mi Calm Calm - N/A   Scattered Clouds
2:15 AM 80.6 °F 81.8 °F 62.6 °F 54% 29.94 in 10.0 mi Calm Calm - N/A   Partly Cloudy
2:35 AM 78.8 °F - 62.6 °F 57% 29.94 in 10.0 mi Calm Calm - N/A   Scattered Clouds
2:55 AM 78.8 °F - 62.6 °F 57% 29.95 in 10.0 mi Calm Calm - N/A   Scattered Clouds
3:15 AM 78.8 °F - 60.8 °F 54% 29.94 in 10.0 mi ENE 3.5 mph - N/A   Clear
3:35 AM 78.8 °F - 60.8 °F 54% 29.95 in 10.0 mi Calm Calm - N/A   Clear
3:55 AM 77.0 °F - 60.8 °F 57% 29.94 in 10.0 mi Calm Calm - N/A   Clear
4:15 AM 75.2 °F - 59.0 °F 57% 29.94 in 10.0 mi ESE 3.5 mph - N/A   Clear
4:35 AM 75.2 °F - 57.2 °F 53% 29.94 in 10.0 mi ESE 3.5 mph - N/A   Clear
4:55 AM 75.2 °F - 57.2 °F 53% 29.95 in 10.0 mi Calm Calm - N/A   Clear
5:15 AM 75.2 °F - 57.2 °F 53% 29.94 in 10.0 mi East 3.5 mph - N/A   Clear
5:35 AM 73.4 °F - 57.2 °F 57% 29.95 in 10.0 mi ENE 3.5 mph - N/A   Clear
5:55 AM 73.4 °F - 57.2 °F 57% 29.96 in 10.0 mi Calm Calm - N/A   Clear
6:15 AM 73.4 °F - 57.2 °F 57% 29.96 in 10.0 mi Calm Calm - N/A   Clear
6:35 AM 73.4 °F - 57.2 °F 57% 29.97 in 10.0 mi ENE 3.5 mph - N/A   Clear
6:55 AM 71.6 °F - 57.2 °F 60% 29.98 in 10.0 mi Calm Calm - N/A   Clear
7:15 AM 71.6 °F - 57.2 °F 60% 29.98 in 10.0 mi Calm Calm - N/A   Clear
7:35 AM 71.6 °F - 57.2 °F 60% 29.99 in 10.0 mi Calm Calm - N/A   Clear
7:55 AM 71.6 °F - 57.2 °F 60% 29.99 in 10.0 mi Calm Calm - N/A   Clear
8:15 AM 71.6 °F - 57.2 °F 60% 30.00 in 10.0 mi East 3.5 mph - N/A   Clear
8:35 AM 73.4 °F - 55.4 °F 53% 30.00 in 10.0 mi East 3.5 mph - N/A   Clear
8:55 AM 73.4 °F - 55.4 °F 53% 30.01 in 10.0 mi ESE 6.9 mph - N/A   Clear
9:15 AM 73.4 °F - 55.4 °F 53% 30.01 in 10.0 mi East 5.8 mph - N/A   Clear
9:35 AM 75.2 °F - 55.4 °F 50% 30.01 in 10.0 mi ENE 5.8 mph - N/A   Clear
9:55 AM 75.2 °F - 55.4 °F 50% 30.02 in 10.0 mi East 3.5 mph - N/A   Clear
10:15 AM 77.0 °F - 55.4 °F 47% 30.02 in 10.0 mi ENE 5.8 mph - N/A   Clear
10:35 AM 78.8 °F - 55.4 °F 44% 30.02 in 10.0 mi ESE 6.9 mph - N/A   Clear
10:55 AM 80.6 °F 80.5 °F 55.4 °F 42% 30.02 in 10.0 mi East 3.5 mph - N/A   Clear
11:15 AM 80.6 °F 80.5 °F 55.4 °F 42% 30.02 in 10.0 mi ENE 5.8 mph - N/A   Clear
11:35 AM 82.4 °F 81.7 °F 55.4 °F 39% 30.02 in 10.0 mi ENE 4.6 mph - N/A   Clear
11:55 AM 82.4 °F 81.7 °F 55.4 °F 39% 30.01 in 10.0 mi ENE 8.1 mph - N/A   Clear
12:15 PM 82.4 °F 81.7 °F 55.4 °F 39% 30.01 in 10.0 mi East 4.6 mph - N/A   Clear
12:35 PM 84.2 °F 83.0 °F 55.4 °F 37% 30.01 in 10.0 mi ESE 6.9 mph - N/A   Clear
12:55 PM 84.2 °F 83.0 °F 55.4 °F 37% 30.00 in 10.0 mi ENE 4.6 mph - N/A   Clear
1:15 PM 87.8 °F 86.1 °F 55.4 °F 33% 29.99 in 10.0 mi East 5.8 mph - N/A   Clear
1:35 PM 87.8 °F 86.1 °F 55.4 °F 33% 29.98 in 10.0 mi SE 6.9 mph - N/A   Clear
1:55 PM 89.6 °F 87.7 °F 55.4 °F 31% 29.97 in 10.0 mi ESE 3.5 mph - N/A   Clear
2:15 PM 89.6 °F 87.7 °F 55.4 °F 31% 29.97 in 10.0 mi ESE 5.8 mph - N/A   Clear
2:35 PM 89.6 °F 87.7 °F 55.4 °F 31% 29.95 in 10.0 mi East 3.5 mph - N/A   Clear
2:55 PM 91.4 °F 89.9 °F 57.2 °F 31% 29.95 in 10.0 mi ENE 4.6 mph - N/A   Clear
3:15 PM 91.4 °F 89.9 °F 57.2 °F 31% 29.94 in 10.0 mi SE 8.1 mph - N/A   Clear
3:35 PM 91.4 °F 89.9 °F 57.2 °F 31% 29.93 in 10.0 mi ENE 4.6 mph - N/A   Clear
3:55 PM 91.4 °F 89.9 °F 57.2 °F 31% 29.93 in 10.0 mi East 5.8 mph - N/A   Clear
4:15 PM 91.4 °F 89.9 °F 57.2 °F 31% 29.92 in 10.0 mi ENE 4.6 mph - N/A   Clear
4:35 PM 91.4 °F 89.9 °F 57.2 °F 31% 29.91 in 10.0 mi East 3.5 mph - N/A   Clear
4:55 PM 91.4 °F 89.9 °F 57.2 °F 31% 29.91 in 10.0 mi East 3.5 mph - N/A   Clear
5:15 PM 91.4 °F 89.9 °F 57.2 °F 31% 29.91 in 10.0 mi ENE 5.8 mph - N/A   Clear
5:35 PM 91.4 °F 89.9 °F 57.2 °F 31% 29.91 in 10.0 mi SE 5.8 mph - N/A   Clear
5:55 PM 91.4 °F 89.9 °F 57.2 °F 31% 29.91 in 10.0 mi East 3.5 mph - N/A   Clear
6:15 PM 89.6 °F 88.1 °F 57.2 °F 33% 29.92 in 10.0 mi Calm Calm - N/A   Clear
6:35 PM 89.6 °F 88.1 °F 57.2 °F 33% 29.92 in 10.0 mi ENE 3.5 mph - N/A   Clear
6:55 PM 89.6 °F 88.1 °F 57.2 °F 33% 29.92 in 10.0 mi ENE 3.5 mph - N/A   Clear
7:15 PM 87.8 °F 87.1 °F 59.0 °F 38% 29.92 in 10.0 mi Calm Calm - N/A   Clear
7:35 PM 86.0 °F 85.4 °F 59.0 °F 40% 29.93 in 10.0 mi Calm Calm - N/A   Clear
7:55 PM 84.2 °F 83.8 °F 59.0 °F 42% 29.93 in 10.0 mi Calm Calm - N/A   Clear
8:15 PM 82.4 °F 82.9 °F 60.8 °F 48% 29.94 in 10.0 mi Calm Calm - N/A   Clear
8:35 PM 80.6 °F 81.5 °F 60.8 °F 51% 29.94 in 10.0 mi Calm Calm - N/A   Clear
8:55 PM 78.8 °F - 60.8 °F 54% 29.95 in 10.0 mi Calm Calm - N/A   Clear
9:15 PM 78.8 °F - 60.8 °F 54% 29.96 in 10.0 mi Calm Calm - N/A   Clear
9:35 PM 78.8 °F - 60.8 °F 54% 29.96 in 10.0 mi Calm Calm - N/A   Clear
9:55 PM 77.0 °F - 60.8 °F 57% 29.97 in 10.0 mi Calm Calm - N/A   Clear
10:15 PM 77.0 °F - 60.8 °F 57% 29.98 in 10.0 mi Calm Calm - N/A   Clear
10:35 PM 78.8 °F - 59.0 °F 51% 29.98 in 10.0 mi Calm Calm - N/A   Clear
10:55 PM 78.8 °F - 57.2 °F 47% 29.99 in 10.0 mi Calm Calm - N/A   Clear
11:15 PM 77.0 °F - 57.2 °F 50% 29.99 in 10.0 mi Calm Calm - N/A   Clear
11:35 PM 78.8 °F - 57.2 °F 47% 29.99 in 10.0 mi ESE 3.5 mph - N/A   Clear
11:55 PM 77.0 °F - 55.4 °F 47% 29.99 in 10.0 mi Calm Calm - N/A   Clear